Погода Имени Попова

Погода Имени Попова : погода сейчас, прогноз погоды и архив. Всё, что Вы хотите узнать о погоде Имени Попова!

Поиск расширенной информации на нашем сайте:

Другие новости

Новости СМИ2

Главная страница сайта

Новости сайта

03.07.2017

Напоминаем, что на нашем специализированном сайте Метеоцентр.Азия вы можете получить высокодетализированные автоматические прогнозы погоды по пунктам России, СНГ и мира в авиационном формате (включающие направление и скорость ветра, видимость, явления погоды, количество и форму облачности, нижнюю и верхнюю границу облачности).


Погода Имени Попова - сегодня

Время (UTC), дата Ветер
(°,м/с) 
Видим.   Явления Облачность Т
(°С)
Тd
(°С)
f(%) Тe
(°С)
Pmin
(гПа)
dP
(гПа)
Po
(мм)
O2
(г/м3)
Тmin Tmax R s Состояние
почвы
00 16.05.18 350 (С) 4000 м  в посл. час туман  10/0 средняя, верхняя 
[Ac trans|Cs]
-15.1 -16.4 90 -20  1019.1  0.4  764  327           
03 16.05.18 360 (С) 20000 м    9/0 средняя 
[Ac trans]
-12.3 -13.5 91 -16  1018.9  -0.2  764  323  -17.6      66  неравномерный
сухой снег
100% 
06 16.05.18 360 (С) 20000 м    10/10 450 м 
[Sc]
-10.3 -11.7 89 -14  1018.3  -0.6  763  321           
09 16.05.18 360 (С) 20000 м    10/10 480 м 
[Sc]
-9.4 -11.1 87 -15  1018.1  0.1  763  320           
12 16.05.18 340 (С) 20000 м    10/10 480 м 
[Sc]
-10.7 -12.3 88 -17  1018.1  763  321           
15 16.05.18 360 (С) н/о    н/о 
-9.1 -10.6 89 -15  1017.1  -1  762  319    -9.1       
03 17.05.18 360 (С) 20000 м  позёмок{ливн. осадки}  10/10 480 м 
[Sc]
-6.1 -7.1 93 -11  1016.7  0.5  762  315  -10.4      66  неравномерный
сухой снег
100% 
03 18.05.18 010 (С) 4000 м  в посл. час морось{снег}  10/10 300 м 
[St]
-8.4 -9.2 94 -13  1021.9  0.3  766  319  -8.7    0.4  67  неравномерный
сухой снег
100% 
09 18.05.18 330 (СЗ) 20000 м    10/10 420 м 
[Sc]
-6.7 -7.9 91 -10  1022.2  0.2  766  317           
12 18.05.18 310 (СЗ) 20000 м    10/10 400 м 
[Sc]
-7.1 -8.2 92 -10  1022.5  0.3  766  318           
18 18.05.18 340 (С) 20000 м    10/10 300 м 
[Sc]
-9 -9.7 95 -9  1021.6  -0.7  766  320           
21 18.05.18 тихо ()   20000 м    10/10 270 м 
[St]
-8.6 -9.2 95 -9  1021.1  -0.5  765  319           
03 19.05.18 210 (ЮЗ) 20000 м    10/10 270 м 
[St]
-8.9 -9.6 95 -11  1018.9  -1.3  764  319  -9.2      67  неравномерный
сухой снег
100% 
06 19.05.18 190 (Ю) 20000 м    10/10 360 м 
[Sc]
-8.8 -9.6 94 -13  1017.9  -1  763  319           
09 19.05.18 170 (Ю) 20000 м    10/10 400 м 
[Sc]
-8.3 -9.6 90 -11  1016.7  -1.2  762  318           
12 19.05.18 150 (ЮВ) 20000 м    10/10 420 м 
[Sc]
-8.1 -9.5 90 -12  1015.1  -1.6  761  317           
21 19.05.18 100 (В) 0500 м  сильн. снег  10/10 450 м 
[Ns]
-8.6 -9.4 94 -13  1009.7  -1.7  757  316           
00 20.05.18 080 (В) 4000 м  в посл. час снег  10/4 300 м средняя 
[Sc|Ac und]
-8.6 -9.4 94 -13  1007.8  -1.9  755  315           
03 20.05.18 070 (В) 20000 м  {снег}  1/0 верхняя 
[Ci fib]
-8.5 -9.6 92 -14  1006.7  -1.1  754  315  -8.7    68  неравномерный
сухой снег
100% 
06 20.05.18 050 (СВ) 20000 м  {снег}  ясно 
-8.1 -9.6 89 -14  1006.5  0.1  754  314           
18 20.05.18 310 (СЗ) 20000 м    10/10 270 м 
[St]
-8.7 -9.3 95 -8  1008.5  -0.3  756  316           
00 21.05.18 160 (Ю) 2000 м  снег  10/3 300 м средняя 
[Frnb|As op]
-8 -8.6 95 -12  1005.5  -2.1  754  314           
03 21.05.18 160 (Ю) 8-11{12}  0500 м  ливневой снег  10/10 200 м 
[]
-7.4 -8.1 95 -13  1002.4  -3  751  312  -8.9    0.4  68  неравномерный
сухой снег
100% 
15 21.05.18 180 (Ю) 2000 м  слаб. ливневой снег  10/10 240 м кучево-дожд. 
[Cb cap]
-0.1 -0.2 99 -4  990.3  -4.8  742  299    +0  0.4     
21 21.05.18 240 (ЮЗ) 0500 м  снег{ливн. осадки, туман}  ?/?  
-0.2 -0.2 100 -2  984.5  -1.5  738  297           
Время (UTC), дата Ветер
(°,м/с) 
Видим.   Явления Облачность Т
(°С)
Тd
(°С)
f(%) Тe
(°С)
Pmin
(гПа)
dP
(гПа)
Po
(мм)
O2
(г/м3)
Тmin Tmax R s Состояние
почвы

Для получения пояснительной информации подведите курсор к названию столбца.

ПОГОДА Имени Попова - архив

Всё, что Вы хотите узнать о погоде Имени Попова - удобно и подробно!

Выберите нужную дату (начиная с 1 января 2015* года) и нажмите кнопку "Найти".
Будут отображены архивные сводки погоды по пункту Имени Попова, начиная с указанной даты.


Отображать данные в формате CSV (для использования в таблицах Excel)


Внимание! Наш архив погоды предназначен исключительно для личного некоммерческого использования в познавательных целях. Если Вам необходимы официальные справки о состоянии погоды (для производственных, юридических, коммерческих и т.п. целей), обращайтесь в органы Росгидромета.

*Примечание: данная дата относится к архиву по метеостанциям СССР (Россия, СНГ, Балтия).
Архив по метеостанциям Зарубежной Европы и Азии (кроме Китая) хранится 10 дней, по другим регионам земного шара (Китай, Африка, Америка, Австралия, Океания) - 1 день.

Имени Попова - район местоположения метеостанции


Название, широта, долгота, высота метеостанции:
Имени Попова 73.3°ш. 70.1°д. 7 м над ур. моря [Российская Федерация]

Дополнительная информация

В oтличие oт бoльшинства пoгoдных сайтoв мы публикуем пoдрoбную метеoинфoрмацию в детальнoм прoфессиoнальнoм фoрмате.

Характеристики температуры и влажнoсти вoздуха измеряются на высoте 2 м в тени вдали oт зданий и деревьев.
Скoрoсть ветра измеряется на высoте 10 м (на урoвне рoста челoвека скoрoсть ветра ниже в 1.5-2 раза). Если метеoстанция нахoдится в гoрoде или в лесу, тo скoрoсть ветра занижена на 2-4 м/с пo сравнению с oткрытым местoм. Скoрoсть ветра над акватoриями крупных рек и oзёр, а также на вершинах хoлмoв на 2-5 м/с выше, чем в oбычных услoвиях.
Атмoсфернoе давление в разных тoчках местнoсти мoжет значительнo oтличаться oт давления на метеoстанции, в зависимoсти oт услoвий рельефа (при пoдъёме на 10 м давление пoнижается примернo на 1 мм рт.ст.).